Orbital Elements at Epoch 2459200.5 (2020-Dec-17.0) TDB
Reference: JPL 42 (heliocentric ecliptic J2000)
Element | Value | Uncertainty (1-sigma) | Units |
e | .06465475824094243 | 3.6696e-08 | |
a | 3.128075305770448 | 1.6772e-08 | au |
q | 2.925830353116397 | 1.1634e-07 | au |
i | 9.586684852204012 | 4.0127e-06 | deg |
node | 288.1579674066224 | 2.3972e-05 | deg |
peri | 193.1517916433142 | 3.9133e-05 | deg |
M | 32.0822825287561 | 3.0303e-05 | deg |
tp | 2459020.415230284460 (2020-Jun-19.91523028) | 0.00017002 | TDB |
period | 2020.757626564915 5.53 | 1.6252e-05 4.45e-08 | d yr |
n | .1781510039934694 | 1.4328e-09 | deg/d |
Q | 3.330320258424499 | 1.7857e-08 | au |
|
| | Orbit Determination Parameters
Additional Information
|